Home > Weather > Stonewall > Past weeks

Flag for Canada Weather for the Past 2 Weeks in Stonewall, Manitoba, Canada

Now
9 °F

Light snow. Overcast.


Feels Like: -14 °F
Forecast: -5 / 8 °F
Wind: 29 mph from North

Location: Winnipeg Int. Airportman.

Current Time: Feb 8, 2016 at 9:31:37 AM

Latest Report: Feb 8, 2016 at 9:00 AM


Visibility: 15 mi

Pressure: 30.28 "Hg

Humidity: 72%

Dew point: 1 °F

Location of StonewallLocation

Historic Weather in Stonewall — Graph

°F

Stonewall Temperature Yesterday

Maximum temperature yesterday: 32 °F (at 12:00 AM)
Minimum temperature yesterday: 9 °F (at 4:00 PM)
Average temperature yesterday: 17 °F

High & Low Weather Summary for the Past Weeks

 TemperatureHumidityPressure
High37 °F (Jan 27, 2:00 PM)100% (Jan 27, 10:00 AM)30.30 "Hg (Jan 27, 10:00 AM)
Low-4 °F (Feb 4, 8:00 AM)68% (Jan 26, 3:00 PM)29.21 "Hg (Jan 30, 1:00 AM)
Average18 °F83%29.89 "Hg
* Reported Jan 24 8:00 AM — Feb 8 8:00 AM, Stonewall, Weather by CustomWeather, © 2016

Note: Actual official high and low records may vary slightly from our data, if they occured in-between our weather recording intervals... More about our weather records

Advertising

Stonewall Weather History for the Previous 24 Hours

 ConditionsComfort  
Time TempWeatherWind HumidityBarometerVisibility
8:00 AM
Mon, Feb 8
9 °FLight snow. Overcast.28 mph72%30.27 "Hg15 mi
7:00 AM9 °FLight snow. Overcast.25 mph72%30.25 "Hg5 mi
6:00 AM10 °FLight snow. Overcast.21 mph72%30.24 "Hg5 mi
5:00 AM9 °FLight snow. Overcast.21 mph78%30.23 "Hg5 mi
4:00 AM9 °FLight snow. Overcast.28 mph78%30.21 "Hg3 mi
3:00 AM9 °FLight snow. Overcast.30 mph78%30.19 "Hg1 mi
2:00 AM9 °FLight snow. Overcast.20 mph78%30.18 "Hg6 mi
1:00 AM9 °FLight snow. Overcast.20 mph78%30.17 "Hg3 mi
12:00 AM9 °FLight snow. Overcast.24 mph78%30.16 "Hg2 mi
11:00 PM
Sun, Feb 7
9 °FLight snow. Overcast.16 mph78%30.14 "Hg3 mi
10:00 PM9 °FLight snow. Overcast.23 mph78%30.14 "Hg3 mi
9:00 PM9 °FLight snow. Overcast.23 mph78%30.11 "Hg2 mi
8:00 PM9 °FLight snow. Overcast.21 mph78%30.10 "Hg1 mi
7:00 PM9 °FLight snow. Ice fog.22 mph78%30.07 "Hg1 mi
6:00 PM9 °FLight snow. Overcast.21 mph78%30.04 "Hg3 mi
5:00 PM9 °FLight snow. Overcast.30 mph85%30.00 "Hg2 mi
4:00 PM9 °FLight snow. Overcast.30 mph85%29.96 "Hg1 mi
3:00 PM10 °FLight snow. Overcast.30 mph79%29.91 "Hg1 mi
2:00 PM10 °FCold.32 mph85%29.87 "Hg1 mi
1:00 PM12 °FLight snow. Overcast.32 mph85%29.83 "Hg1 mi
12:00 PM14 °FLight snow. Overcast.33 mph85%29.80 "Hg1 mi
11:00 AM16 °FLight snow. Overcast.37 mph86%29.75 "Hg1 mi
10:00 AM18 °FLight snow. Mostly cloudy.36 mph93%29.69 "Hg1 mi
9:00 AM21 °FLight snow. Overcast.30 mph93%29.62 "Hg1 mi
Weather by CustomWeather, © 2016

See weather overviewHow to use our weather pages